This is the latest recevied weather packets stored in our database for station/object N4ASP-13. If no packets are shown the sender has not sent any weather packets the latest 10 day(s).
| Time | Temp. | Humidity | Pressure | Rain* | Wind** | Luminosity | Snow |
|---|---|---|---|---|---|---|---|
| 1778340275 | 17.78° C | 74% | 1012.2 hPa | 0 mm | - | 425 W/m² | - |
| 1778340216 | 17.78° C | 75% | 1012.2 hPa | 0 mm | - | 425 W/m² | - |
| 1778340155 | 17.78° C | 75% | 1012.2 hPa | 0 mm | - | 425 W/m² | - |
| 1778340095 | 18.33° C | 75% | 1012.1 hPa | 0 mm | - | 378 W/m² | - |
| 1778340036 | 18.33° C | 74% | 1012.2 hPa | 0 mm | - | 343 W/m² | - |
| 1778339976 | 18.33° C | 75% | 1012.2 hPa | 0 mm | - | 327 W/m² | - |
| 1778339917 | 18.33° C | 75% | 1012.1 hPa | 0 mm | - | 350 W/m² | - |
| 1778339855 | 18.33° C | 77% | 1012.2 hPa | 0 mm | - | 374 W/m² | - |
| 1778339796 | 17.78° C | 76% | 1012.1 hPa | 0 mm | - | 483 W/m² | - |
| 1778339735 | 17.78° C | 75% | 1012.1 hPa | 0 mm | - | 483 W/m² | - |
| 1778339677 | 17.78° C | 75% | 1012.2 hPa | 0 mm | - | 483 W/m² | - |
| 1778339616 | 17.78° C | 75% | 1012.1 hPa | 0 mm | - | 541 W/m² | - |
| 1778339556 | 17.78° C | 75% | 1012 hPa | 0 mm | - | 461 W/m² | - |
| 1778339495 | 17.78° C | 75% | 1011.8 hPa | 0 mm | - | 422 W/m² | - |
| 1778339436 | 17.78° C | 77% | 1011.8 hPa | 0 mm | - | 473 W/m² | - |
| 1778339376 | 17.78° C | 76% | 1011.8 hPa | 0 mm | - | 473 W/m² | - |
| 1778339316 | 17.78° C | 75% | 1011.7 hPa | 0 mm | - | 473 W/m² | - |
| 1778339257 | 17.78° C | 75% | 1011.8 hPa | 0 mm | - | 473 W/m² | - |
| 1778339192 | 17.78° C | 75% | 1011.8 hPa | 0 mm | - | 473 W/m² | - |
| 1778339132 | 17.78° C | 75% | 1011.7 hPa | 0 mm | - | 721 W/m² | - |
| 1778339072 | 17.78° C | 75% | 1011.7 hPa | 0 mm | - | 629 W/m² | - |
| 1778339011 | 17.78° C | 76% | 1011.8 hPa | 0 mm | - | 814 W/m² | - |
| 1778338952 | 17.78° C | 75% | 1011.8 hPa | 0 mm | - | 814 W/m² | - |
| 1778338892 | 17.78° C | 76% | 1011.8 hPa | 0 mm | - | 814 W/m² | - |
| 1778338833 | 17.78° C | 77% | 1011.8 hPa | 0 mm | - | 814 W/m² | - |
* Rain latest hour (hover to see other rain measurements)
** Current wind speed in m/s (hover to see current wind gust speed)